Regional Weather Roundup
Issued by NWS

Home | Current Version | Previous Version | Graphics & Text | Print | Product List | Glossary On
Versions: 1 2 3 4 5 6 7 8 9 10 11 12 13 14 15 16 17 18 19 20 21 22 23 24 25 26 27 28 29 30 31 32 33 34 35 36 37 38 39 40 41 42 43 44 45 46 47 48 49 50
000
ASUS44 KMEG 272110
RWRTN
TENNESSEE HOURLY STATE WEATHER ROUNDUP
NATIONAL WEATHER SERVICE MEMPHIS TN
400 PM CDT SAT AUG 27 2016

TNZ002-004-019-021-049-052-054-088>092-272200-
WEST TENNESSEE

CITY           SKY/WX    TMP DP  RH WIND       PRES   REMARKS
MEMPHIS INTL   MOSUNNY   94  69  44 E6        30.00F HX  99
NWS MEMPHIS      N/A     91 N/A N/A MISG        N/A
JACKSON        MOSUNNY   91  73  55 NE5       30.03F HX  99
DYERSBURG      SUNNY    N/A N/A N/A MISG        N/A
UNION CITY     PTSUNNY   91  75  59 CALM      30.02F HX 102
PARIS          MOSUNNY   88  73  62 CALM      30.05S HX  96
$$

TNZ008-025-027-028-033-062-065-066-272200-
NORTH MIDDLE TENNESSEE

CITY           SKY/WX    TMP DP  RH WIND       PRES   REMARKS
NASHVILLE      TSTM      73  70  88 NE14      30.11R
CLARKSVILLE    MOSUNNY   90  74  59 N5        30.04F HX  99
SMYRNA         TSTM      73  72  94 VRB6      30.08F
COOKEVILLE     MOSUNNY   95  75  52 VRB5      30.07S HX 107
CROSSVILLE     PTSUNNY   88  64  44 VRB5      30.14F
$$

TNZ061-075-076-078-094-096-097-272200-
SOUTH MIDDLE TENNESSEE

CITY           SKY/WX    TMP DP  RH WIND       PRES   REMARKS
FAYETTEVILLE   SUNNY     86  75  70 VRB5      30.07S HX  95
TULLAHOMA      SUNNY     84  66  54 W3        30.10F
WINCHESTER     PTSUNNY   77  72  83 N5        30.09S
MCMINNVILLE    SUNNY     84  73  70 NW3       30.08F HX  91
COLUMBIA       SUNNY     90  81  74 N3        30.04F HX 108
SHELBYVILLE    SUNNY     86  73  66 E6        30.09S HX  93
$$

TNZ017-018-042-046-047-272200-
NORTHEAST TENNESSEE

CITY           SKY/WX    TMP DP  RH WIND       PRES   REMARKS
TRI CITIES     MOSUNNY   93  67  42 E5        30.11F THUNDER HX  96
ELIZABETHTON   MOSUNNY   81  68  65 NW6G15    30.13R
$$

TNZ012-013-036-069-073-074-272200-
CENTRAL EAST TENNESSEE

CITY           SKY/WX    TMP DP  RH WIND       PRES   REMARKS
KNOXVILLE      TSTM      74  69  85 SW22G39   30.07R VSB 1/4
GATLINBURG       N/A     91  66  43 CALM      30.06F HX  94
MORRISTOWN     SUNNY     93  66  40 CALM      30.08F HX  96
$$

TNZ083-085-099-272200-
SOUTHEAST TENNESSEE

CITY           SKY/WX    TMP DP  RH WIND       PRES   REMARKS
CHATTANOOGA    MOSUNNY   89  69  51 NE12      30.05F THUNDER HX  93
$$

SKY/WX REPORTED AS FAIR MEANS FEW OR NO CLOUDS BELOW
12 THOUSAND FEET.




USA.gov is the U.S. government's official web portal to all federal, state and local government web resources and services.